When you browse on this site, cookies collect data to enhance your experience and personalize the content and advertising you see.
Visit our Privacy Policy to learn more. By continuing to use the site, you agree to this use of cookies and data.
  • In Austria
  • List of Countries
  • For 7 days
  • Water Temperature
  • Weather Map
  • News
  • Weather Widgets
  • user-avatar
    Login

    Hourly Weather La Rioja

    Today, 10 December, Tuesday

    Time Temperature Precipitation Wind Pressure Humidity
    00:00 +28°C° 0 mm 1 mps 712 mmHg 36%
    01:00 +28°C° 0 mm 1 mps 712 mmHg 38%
    02:00 +27°C° 0 mm 1 mps 712 mmHg 40%
    03:00 +27°C° 0 mm 1 mps 712 mmHg 42%
    04:00 +26°C° 0 mm 1 mps 712 mmHg 43%
    05:00 +26°C° 0 mm 2 mps 712 mmHg 45%
    06:00 +27°C° 0 mm 2 mps 712 mmHg 42%
    07:00 +28°C° 0 mm 2 mps 713 mmHg 40%
    08:00 +30°C° 0 mm 2 mps 714 mmHg 37%
    09:00 +31°C° 0 mm 2 mps 714 mmHg 34%
    10:00 +32°C° 0 mm 2 mps 713 mmHg 32%
    11:00 +35°C° 0 mm 3 mps 713 mmHg 29%
    12:00 +36°C° 0 mm 3 mps 713 mmHg 27%
    13:00 +37°C° 0 mm 3 mps 712 mmHg 25%
    14:00 +38°C° 0 mm 3 mps 711 mmHg 23%
    15:00 +38°C° 0 mm 3 mps 711 mmHg 22%
    16:00 +38°C° 0 mm 3 mps 710 mmHg 21%
    17:00 +38°C° 0 mm 3 mps 709 mmHg 20%
    18:00 +37°C° 0 mm 3 mps 710 mmHg 21%
    19:00 +36°C° 0 mm 2 mps 710 mmHg 23%
    20:00 +35°C° 0 mm 2 mps 710 mmHg 25%
    21:00 +34°C° 0 mm 2 mps 710 mmHg 28%
    22:00 +32°C° 0 mm 2 mps 711 mmHg 31%
    23:00 +32°C° 0 mm 2 mps 711 mmHg 34%

    Tomorrow, 11 December, Wednesday

    Time Temperature Precipitation Wind Pressure Humidity
    00:00 +31°C° 0 mm 2 mps 710 mmHg 38%
    01:00 +30°C° 0 mm 1 mps 710 mmHg 41%
    02:00 +29°C° 0 mm 1 mps 710 mmHg 45%
    03:00 +29°C° 0 mm 1 mps 709 mmHg 45%
    04:00 +29°C° 0 mm 1 mps 709 mmHg 45%
    05:00 +28°C° 0 mm 1 mps 708 mmHg 45%
    06:00 +30°C° 0 mm 2 mps 709 mmHg 42%
    07:00 +31°C° 0 mm 2 mps 709 mmHg 39%
    08:00 +33°C° 0 mm 3 mps 709 mmHg 36%
    09:00 +34°C° 0 mm 3 mps 709 mmHg 34%
    10:00 +36°C° 0 mm 2 mps 709 mmHg 31%
    11:00 +37°C° 0 mm 2 mps 708 mmHg 28%
    12:00 +38°C° 0 mm 2 mps 708 mmHg 26%
    13:00 +39°C° 0 mm 2 mps 707 mmHg 24%
    14:00 +40°C° 0 mm 2 mps 706 mmHg 22%
    15:00 +42°C° 0 mm 3 mps 706 mmHg 21%
    16:00 +42°C° 0 mm 3 mps 705 mmHg 20%
    17:00 +42°C° 0 mm 4 mps 705 mmHg 20%
    18:00 +40°C° 0 mm 3 mps 705 mmHg 21%
    19:00 +39°C° 0 mm 3 mps 706 mmHg 23%
    20:00 +37°C° 0 mm 2 mps 706 mmHg 24%
    21:00 +37°C° 0 mm 4 mps 707 mmHg 26%
    22:00 +36°C° 0 mm 5 mps 708 mmHg 28%
    23:00 +35°C° 0 mm 7 mps 709 mmHg 31%

    Day after tomorrow, 12 December, Thursday

    Time Temperature Precipitation Wind Pressure Humidity
    00:00 +33°C° 0 mm 6 mps 709 mmHg 35%
    01:00 +30°C° 0 mm 5 mps 709 mmHg 40%
    02:00 +29°C° 0 mm 4 mps 709 mmHg 45%
    03:00 +28°C° 0 mm 3 mps 710 mmHg 46%
    04:00 +28°C° 0 mm 2 mps 710 mmHg 48%
    05:00 +27°C° 0 mm 1 mps 711 mmHg 49%
    06:00 +28°C° 0 mm 2 mps 712 mmHg 47%
    07:00 +29°C° 0 mm 3 mps 713 mmHg 44%
    08:00 +29°C° 0 mm 4 mps 714 mmHg 42%
    09:00 +30°C° 0 mm 4 mps 714 mmHg 40%
    10:00 +32°C° 0 mm 4 mps 714 mmHg 38%
    11:00 +32°C° 0 mm 4 mps 714 mmHg 36%
    12:00 +33°C° 0 mm 4 mps 713 mmHg 34%
    13:00 +33°C° 0 mm 4 mps 713 mmHg 31%
    14:00 +34°C° 0 mm 3 mps 712 mmHg 29%
    15:00 +34°C° 0 mm 3 mps 712 mmHg 28%
    16:00 +34°C° 0 mm 3 mps 711 mmHg 27%
    17:00 +35°C° 0 mm 3 mps 711 mmHg 26%
    18:00 +34°C° 0 mm 3 mps 711 mmHg 27%
    19:00 +33°C° 0 mm 3 mps 712 mmHg 27%
    20:00 +31°C° 0 mm 2 mps 712 mmHg 27%
    21:00 +30°C° 0 mm 2 mps 713 mmHg 27%
    22:00 +29°C° 0 mm 2 mps 713 mmHg 27%
    23:00 +28°C° 0 mm 2 mps 714 mmHg 27%

    13 December, Friday

    Time Temperature Precipitation Wind Pressure Humidity
    00:00 +27°C° 0 mm 2 mps 713 mmHg 28%
    01:00 +27°C° 0 mm 1 mps 713 mmHg 29%
    02:00 +26°C° 0 mm 1 mps 713 mmHg 30%
    03:00 +26°C° 0 mm 1 mps 713 mmHg 30%
    04:00 +25°C° 0 mm 2 mps 713 mmHg 31%
    05:00 +25°C° 0 mm 2 mps 713 mmHg 31%
    06:00 +26°C° 0 mm 2 mps 713 mmHg 28%
    07:00 +27°C° 0 mm 3 mps 713 mmHg 25%
    08:00 +28°C° 0 mm 3 mps 714 mmHg 22%
    09:00 +29°C° 0 mm 3 mps 713 mmHg 23%
    10:00 +30°C° 0 mm 3 mps 713 mmHg 24%
    11:00 +31°C° 0 mm 3 mps 712 mmHg 25%
    12:00 +34°C° 0 mm 4 mps 712 mmHg 26%
    13:00 +35°C° 0 mm 5 mps 711 mmHg 26%
    14:00 +36°C° 0 mm 6 mps 710 mmHg 27%
    15:00 +36°C° 0 mm 6 mps 709 mmHg 29%
    16:00 +36°C° 0 mm 6 mps 708 mmHg 30%
    17:00 +36°C° 0 mm 6 mps 707 mmHg 31%
    18:00 +35°C° 0 mm 6 mps 708 mmHg 36%
    19:00 +33°C° 0 mm 5 mps 708 mmHg 41%
    20:00 +32°C° 0 mm 5 mps 709 mmHg 46%
    21:00 +30°C° 0 mm 4 mps 709 mmHg 48%
    22:00 +29°C° 0 mm 4 mps 709 mmHg 50%
    23:00 +29°C° 0 mm 3 mps 709 mmHg 53%

    14 December, Saturday

    Time Temperature Precipitation Wind Pressure Humidity
    00:00 +28°C° 0 mm 2 mps 709 mmHg 53%
    01:00 +28°C° 0 mm 2 mps 708 mmHg 54%
    02:00 +28°C° 0 mm 1 mps 708 mmHg 55%
    03:00 +28°C° 0 mm 2 mps 708 mmHg 56%
    04:00 +27°C° 0 mm 2 mps 708 mmHg 56%
    05:00 +27°C° 0 mm 3 mps 708 mmHg 57%
    06:00 +28°C° 0 mm 4 mps 709 mmHg 54%
    07:00 +29°C° 0 mm 4 mps 710 mmHg 50%
    08:00 +29°C° 0 mm 5 mps 710 mmHg 46%
    09:00 +32°C° 0 mm 5 mps 711 mmHg 43%
    10:00 +34°C° 0 mm 6 mps 711 mmHg 40%
    11:00 +35°C° 0 mm 6 mps 711 mmHg 36%
    12:00 +36°C° 0 mm 6 mps 711 mmHg 34%
    13:00 +37°C° 0 mm 5 mps 710 mmHg 32%
    14:00 +37°C° 0 mm 5 mps 709 mmHg 30%
    15:00 +37°C° 0 mm 5 mps 709 mmHg 29%
    16:00 +37°C° 0 mm 4 mps 708 mmHg 29%
    17:00 +38°C° 0 mm 4 mps 708 mmHg 28%
    18:00 +36°C° 0.1 mm 4 mps 709 mmHg 32%
    19:00 +35°C° 0.1 mm 4 mps 709 mmHg 36%
    20:00 +34°C° 0.1 mm 5 mps 710 mmHg 40%
    21:00 +32°C° 0.8 mm 4 mps 710 mmHg 48%
    22:00 +30°C° 0.8 mm 3 mps 711 mmHg 57%
    23:00 +29°C° 0.8 mm 2 mps 711 mmHg 65%

    15 December, Sunday

    Time Temperature Precipitation Wind Pressure Humidity
    00:00 +28°C° 0.9 mm 2 mps 711 mmHg 64%
    01:00 +28°C° 0.9 mm 3 mps 711 mmHg 64%
    02:00 +28°C° 0.9 mm 3 mps 712 mmHg 63%
    03:00 +27°C° 0.9 mm 3 mps 712 mmHg 64%
    04:00 +26°C° 0.9 mm 4 mps 713 mmHg 65%
    05:00 +26°C° 0.9 mm 4 mps 713 mmHg 66%
    06:00 +23°C° 3.1 mm 4 mps 714 mmHg 72%
    07:00 +22°C° 3.1 mm 3 mps 715 mmHg 78%
    08:00 +21°C° 3.1 mm 3 mps 716 mmHg 84%
    09:00 +21°C° 3.2 mm 3 mps 716 mmHg 84%
    10:00 +21°C° 3.2 mm 3 mps 717 mmHg 83%
    11:00 +21°C° 3.2 mm 3 mps 717 mmHg 83%
    12:00 +23°C° 0.2 mm 2 mps 717 mmHg 74%
    13:00 +24°C° 0.2 mm 2 mps 716 mmHg 66%
    14:00 +26°C° 0.2 mm 1 mps 716 mmHg 58%
    15:00 +26°C° 0 mm 2 mps 715 mmHg 53%
    16:00 +27°C° 0 mm 2 mps 715 mmHg 48%
    17:00 +28°C° 0 mm 2 mps 714 mmHg 43%
    18:00 +28°C° 0 mm 2 mps 714 mmHg 45%
    19:00 +27°C° 0 mm 1 mps 714 mmHg 47%
    20:00 +27°C° 0 mm 1 mps 714 mmHg 49%
    21:00 +26°C° 0 mm 1 mps 715 mmHg 50%
    22:00 +26°C° 0 mm 1 mps 715 mmHg 51%
    23:00 +25°C° 0 mm 2 mps 715 mmHg 53%
    Show more